Location: Ahausen
(50.4985°N, 8.2722°E)
Time: 17:34:06
(UTC+00:00)

X-37B - Visible Passes

Search period start: 25 January 2022 00:00
Search period end: 04 February 2022 00:00
Orbit: 334 x 337 km, 45.0° (Epoch: 11 January)

Date Brightness Start Highest point End Pass type
(mag) Time Alt. Az. Time Alt. Az. Time Alt. Az.
28 Jan 2.7 17:58:11 10° S 17:59:29 14° SSE 17:59:29 14° SSE visible
29 Jan 2.5 18:17:39 10° SW 18:19:08 19° S 18:19:08 19° S visible
30 Jan 2.8 17:03:39 10° S 17:05:10 14° SSE 17:06:41 10° SE visible
30 Jan 2.9 18:37:38 10° SW 18:38:45 18° SW 18:38:45 18° SW visible
31 Jan 2.3 17:23:06 10° SW 17:25:18 20° SSE 17:27:08 12° ESE visible
31 Jan 3.5 18:57:52 10° WSW 18:58:21 13° WSW 18:58:21 13° WSW visible
01 Feb 1.9 17:43:04 10° SW 17:45:31 26° S 17:46:43 19° SE visible
02 Feb 1.9 18:03:18 10° WSW 18:05:45 26° S 18:06:20 24° SSE visible
03 Feb 2.3 18:23:42 10° WSW 18:25:58 21° SSW 18:25:58 21° SSW visible
